This is the latest recevied weather packets stored in our database for station/object IZ8FMH-11. If no packets are shown the sender has not sent any weather packets the latest 10 day(s).
| Time | Temp. | Humidity | Pressure | Rain* | Wind** | Luminosity | Snow |
|---|---|---|---|---|---|---|---|
| 1788159900 | 28.89° C | 65% | 1011.7 hPa | - | - | - | - |
| 1788158100 | 28.89° C | 66% | 1011.7 hPa | - | - | - | - |
| 1788156300 | 28.89° C | 65% | 1011.8 hPa | - | - | - | - |
| 1788154500 | 28.89° C | 66% | 1011.9 hPa | - | - | - | - |
| 1788152700 | 28.89° C | 66% | 1011.8 hPa | - | - | - | - |
| 1788150902 | 28.89° C | 66% | 1011.6 hPa | - | - | - | - |
| 1788149100 | 28.89° C | 67% | 1011.8 hPa | - | - | - | - |
| 1788147300 | 28.89° C | 67% | 1011.7 hPa | - | - | - | - |
| 1788145500 | 28.89° C | 67% | 1011.8 hPa | - | - | - | - |
| 1788143699 | 28.89° C | 68% | 1012 hPa | - | - | - | - |
| 1788141899 | 28.89° C | 67% | 1012.1 hPa | - | - | - | - |
| 1788140099 | 28.89° C | 68% | 1012.1 hPa | - | - | - | - |
| 1788138299 | 28.89° C | 67% | 1012.1 hPa | - | - | - | - |
| 1788136499 | 29.44° C | 69% | 1012 hPa | - | - | - | - |
| 1788134701 | 29.44° C | 69% | 1011.8 hPa | - | - | - | - |
| 1788132900 | 29.44° C | 64% | 1011.7 hPa | - | - | - | - |
| 1788131100 | 29.44° C | 64% | 1011.7 hPa | - | - | - | - |
| 1788127500 | 29.44° C | 62% | 1011.5 hPa | - | - | - | - |
| 1788123900 | 30° C | 66% | 1011.4 hPa | - | - | - | - |
| 1788122100 | 30.56° C | 68% | 1011.4 hPa | - | - | - | - |
| 1788120300 | 30.56° C | 68% | 1011.2 hPa | - | - | - | - |
| 1788118500 | 31.11° C | 67% | 1011 hPa | - | - | - | - |
| 1788116700 | 31.11° C | 65% | 1010.8 hPa | - | - | - | - |
| 1788114900 | 31.11° C | 66% | 1010.5 hPa | - | - | - | - |
| 1788113100 | 31.67° C | 64% | 1009.9 hPa | - | - | - | - |
* Rain since midnight (hover to see other rain measurements)
** Current wind speed in m/s (hover to see current wind gust speed)